sat.trackr.live / text

‹ back to catalog

STARLINK-5604

NORAD 55420 · 2023-014AF

PAYLOAD ACTIVE UNKNOWN

§ Identity

Operator
Country
US
Launch date
2023-01-31
Launch site
AFWTR
Launch vehicle
Mass (kg)
RCS (m²)

Purposes: comms

External: N2YO · Heavens-Above · Gunter

§ Orbital elements

Epoch: 2026-05-24T21:34:15.527712Z

Period
96.11 min
Inclination
69.9992°
Eccentricity
0.0003579
Mean motion
14.98331094 rev/d
Perigee alt
569.6 km
Apogee alt
574.5 km
Semi-major
6,950.2 km
B*
2.4982e-6
RAAN
212.3267°
Arg perigee
270.8167°
Mean anomaly
89.2582°
Rev number
18,396

§ Raw data

STARLINK-56041 55420U 23014AF  26144.89879083 -.00000063  00000+0  24982-5 0  99942 55420  69.9992 212.3267 0003579 270.8167  89.2582 14.98331094183963

JSON: /api/v1/satellites/55420 · /tle

For live sub-satellite position, see the globe view (requires WebGL).

§ Visibility from observer

Set your observer location to see the next 7 days of passes ≥ 10°. The values pass through the URL so the page stays shareable.

No JS? Fill the form by hand. The geolocation button needs JavaScript.